Location: Home
(42.5358°N, 72.7383°W)
Time: 04:21:25
(UTC-04:00)

IRIDIUM 152 - Pass Details

Date: 04 July 2022
Orbit: 776 x 779 km, 86.4° (Epoch: 16 August)

Event Time Altitude Azimuth Distance (km) Brightness Sun altitude
Exits shadow 03:34:08 - 158° (SSE) 3,156 ? -15.1°
Reaches altitude 10° 03:36:22 10° 151° (SSE) 2,325 ? -14.8°
Maximum altitude 03:41:08 38° 85° (E) 1,184 ? -14.3°
Drops below altitude 10° 03:45:55 10° 19° (NNE) 2,341 ? -13.7°
Sets 03:48:25 0° 11° (NNE) 3,274 ? -13.4°
